Regional Weather Roundup
Issued by NWS

Home | Current Version | Previous Version | Text Only | Print | Product List | Glossary On
Versions: 1 2 3 4 5 6 7 8 9 10 11 12 13 14 15 16 17 18 19 20 21 22 23 24 25 26 27 28 29 30 31 32 33 34 35 36 37 38 39 40 41 42 43 44 45 46 47 48 49 50
000
ASUS43 KLSX 220359
RWRMO

WEATHER SUMMARY FOR MISSOURI
NATIONAL WEATHER SERVICE SPRINGFIELD MO
1100 PM CDT MON JUL 21 2014

NOTE: "FAIR" INDICATES FEW OR NO CLOUDS BELOW 12,000 FEET WITH NO
       SIGNIFICANT WEATHER AND/OR OBSTRUCTIONS TO VISIBILITY.
       CURRENT SKY AND/OR WEATHER CONDITIONS ARE NOT AVAILABLE FOR
       CHILLICOTHE AND FARMINGTON.

MOZ001>031-035>038-043-044-053-054-220500-
...NORTHERN AND WESTERN MISSOURI...

CITY           SKY/WX    TMP DP  RH WIND       PRES   REMARKS
KANSAS CTY INT PTCLDY    82  73  74 S10       29.98R
KANSAS C DTWN  PTCLDY    84  74  71 S7        29.97R HX  91
LEE`S SUMMIT   CLEAR     82  74  76 S7        30.00R
ST JOSEPH      CLEAR     83  73  72 S10       29.95R
CHILLICOTHE      N/A     82  75  79 S5        29.99R
KIRKSVILLE     CLEAR     73  69  87 SE6       30.01S

$$
MOZ066>068-077>081-088>096-101>105-220500-
...SOUTHWEST MISSOURI...

CITY           SKY/WX    TMP DP  RH WIND       PRES   REMARKS
SPRINGFIELD    CLEAR     77  66  68 S10       30.06R
JOPLIN         CLEAR     77  72  84 S6        30.04R

$$
MOZ032>034-039>042-045>050-055>058-069>072-220500-
...CENTRAL MISSOURI...

CITY           SKY/WX    TMP DP  RH WIND       PRES   REMARKS
COLUMBIA       CLEAR     74  68  81 SE7       30.04R
JEFFERSON CITY CLEAR     77  67  71 E3        30.02R
ROLLA          CLEAR     73  65  75 S10       30.05S
SEDALIA        CLEAR     77  69  76 S7        30.03R
OSAGE BEACH    CLEAR     75  66  73 S6        30.05R

$$
MOZ051-052-059>065-220500-
...EAST CENTRAL MISSOURI...

CITY           SKY/WX    TMP DP  RH WIND       PRES   REMARKS
ST LOUIS INTL  CLEAR     81  65  58 S10       30.06S
SPIRIT OF STL  CLEAR     77  67  71 VRB5      30.04S
ST CHARLES     CLEAR     71  66  84 CALM      30.03F

$$
MOZ072>076-082>087-097>100-106>115-220500-
...SOUTH CENTRAL AND SOUTHEAST MISSOURI...

CITY           SKY/WX    TMP DP  RH WIND       PRES   REMARKS
CAPE GIRARDEAU CLEAR     69  66  90 SE3       30.06F
FARMINGTON     CLEAR     70  66  88 SW3       30.11S
POPLAR BLUFF   CLEAR     68  64  87 CALM      30.05F FOG
WEST PLAINS    CLEAR     71  66  84 CALM      30.11R

$$



USA.gov is the U.S. government's official web portal to all federal, state and local government web resources and services.